Time,TemperatureF,DewpointF,PressureIn,WindDirection,WindDirectionDegrees,WindSpeedMPH,WindSpeedGustMPH,Humidity,HourlyPrecipIn,Conditions,Clouds,dailyrainin,SolarRadiationWatts/m^2,SoftwareType,DateUTC
2013-10-10 00:03:00,56.0,45.0,-100.00,SSE,147,4.0,7.0,66,0.00,,,0.00,0.000000,,2013-10-10 05:03:00,
2013-10-10 00:43:00,49.0,46.0,-100.00,NNW,331,1.0,6.0,90,0.00,,,0.00,0.000000,,2013-10-10 05:43:00,
2013-10-10 00:53:00,49.0,46.0,-100.00,NNW,331,1.0,6.0,90,0.00,,,0.00,0.000000,,2013-10-10 05:53:00,
2013-10-10 01:03:00,49.0,46.0,-100.00,NNW,331,1.0,6.0,90,0.00,,,0.00,0.000000,,2013-10-10 06:03:00,
2013-10-10 01:43:00,45.0,44.0,-100.00,NNW,340,0.0,2.0,95,0.00,,,0.00,0.000000,,2013-10-10 06:43:00,
2013-10-10 01:53:00,45.0,44.0,-100.00,NNW,340,0.0,2.0,95,0.00,,,0.00,0.000000,,2013-10-10 06:53:00,
2013-10-10 02:02:00,45.0,44.0,-100.00,NNW,340,0.0,2.0,95,0.00,,,0.00,0.000000,,2013-10-10 07:02:00,
2013-10-10 02:42:00,44.0,43.0,-100.00,West,269,0.0,1.0,98,0.00,,,0.00,0.000000,,2013-10-10 07:42:00,
2013-10-10 02:52:00,44.0,43.0,-100.00,West,269,0.0,1.0,98,0.00,,,0.00,0.000000,,2013-10-10 07:52:00,
2013-10-10 03:02:00,44.0,43.0,-100.00,West,269,0.0,1.0,98,0.00,,,0.00,0.000000,,2013-10-10 08:02:00,
2013-10-10 03:43:00,43.0,43.0,-100.00,NNW,342,1.0,3.0,99,0.00,,,0.00,0.000000,,2013-10-10 08:43:00,
2013-10-10 03:52:00,43.0,43.0,-100.00,NNW,342,1.0,3.0,99,0.00,,,0.00,0.000000,,2013-10-10 08:52:00,
2013-10-10 04:02:00,43.0,43.0,-100.00,NNW,342,1.0,3.0,99,0.00,,,0.00,0.000000,,2013-10-10 09:02:00,
2013-10-10 04:43:00,41.0,41.0,-100.00,NW,318,0.0,0.0,100,0.00,,,0.00,0.000000,,2013-10-10 09:43:00,
2013-10-10 04:53:00,41.0,41.0,-100.00,NW,318,0.0,0.0,100,0.00,,,0.00,0.000000,,2013-10-10 09:53:00,
2013-10-10 05:03:00,41.0,41.0,-100.00,NW,318,0.0,0.0,100,0.00,,,0.00,0.000000,,2013-10-10 10:03:00,
2013-10-10 05:43:00,40.0,40.0,-100.00,NW,312,0.0,2.0,100,0.00,,,0.00,0.000000,,2013-10-10 10:43:00,
2013-10-10 05:53:00,40.0,40.0,-100.00,NW,312,0.0,2.0,100,0.00,,,0.00,0.000000,,2013-10-10 10:53:00,
2013-10-10 06:03:00,40.0,40.0,-100.00,NW,312,0.0,2.0,100,0.00,,,0.00,0.000000,,2013-10-10 11:03:00,
2013-10-10 09:42:00,52.0,45.0,-100.00,SE,146,5.0,9.0,77,-99.99,,,0.00,153.000000,,2013-10-10 14:42:00,
2013-10-10 09:52:00,52.0,45.0,-100.00,SE,146,5.0,9.0,77,-99.99,,,0.00,153.000000,,2013-10-10 14:52:00,
2013-10-10 10:02:00,52.0,45.0,-100.00,SE,146,5.0,9.0,77,-99.99,,,0.00,153.000000,,2013-10-10 15:02:00,
2013-10-10 10:43:00,55.0,47.0,-100.00,SE,136,2.0,9.0,74,0.00,,,0.00,191.000000,,2013-10-10 15:43:00,
2013-10-10 10:54:00,55.0,47.0,-100.00,SE,136,2.0,9.0,74,0.00,,,0.00,191.000000,,2013-10-10 15:54:00,
2013-10-10 11:03:00,55.0,47.0,-100.00,SE,136,2.0,9.0,74,0.00,,,0.00,191.000000,,2013-10-10 16:03:00,
2013-10-10 11:42:00,62.0,48.0,-100.00,SE,143,6.0,12.0,60,0.00,,,0.00,382.000000,,2013-10-10 16:42:00,
2013-10-10 11:53:00,62.0,48.0,-100.00,SE,143,6.0,12.0,60,0.00,,,0.00,382.000000,,2013-10-10 16:53:00,
2013-10-10 12:02:00,62.0,48.0,-100.00,SE,143,6.0,12.0,60,0.00,,,0.00,382.000000,,2013-10-10 17:02:00,
2013-10-10 12:42:00,67.0,47.0,-100.00,SSE,164,7.0,12.0,49,0.00,,,0.00,474.000000,,2013-10-10 17:42:00,
2013-10-10 12:53:00,67.0,47.0,-100.00,SSE,164,7.0,12.0,49,0.00,,,0.00,474.000000,,2013-10-10 17:53:00,
2013-10-10 13:02:00,67.0,47.0,-100.00,SSE,164,7.0,12.0,49,0.00,,,0.00,474.000000,,2013-10-10 18:02:00,
2013-10-10 13:42:00,70.0,46.0,-100.00,SSE,161,8.0,15.0,43,0.00,,,0.00,533.000000,,2013-10-10 18:42:00,
2013-10-10 13:52:00,70.0,46.0,-100.00,SSE,161,8.0,15.0,43,0.00,,,0.00,533.000000,,2013-10-10 18:52:00,
2013-10-10 14:01:00,70.0,46.0,-100.00,SSE,161,8.0,15.0,43,0.00,,,0.00,533.000000,,2013-10-10 19:01:00,
2013-10-10 14:42:00,72.0,46.0,-100.00,SSE,168,9.0,17.0,40,0.00,,,0.00,562.000000,,2013-10-10 19:42:00,
2013-10-10 14:53:00,72.0,46.0,-100.00,SSE,168,9.0,17.0,40,0.00,,,0.00,562.000000,,2013-10-10 19:53:00,
2013-10-10 15:02:00,72.0,46.0,-100.00,SSE,168,9.0,17.0,40,0.00,,,0.00,562.000000,,2013-10-10 20:02:00,
2013-10-10 15:42:00,73.0,45.0,-100.00,South,171,6.0,16.0,37,0.00,,,0.00,529.000000,,2013-10-10 20:42:00,
2013-10-10 15:52:00,73.0,45.0,-100.00,South,171,6.0,16.0,37,0.00,,,0.00,529.000000,,2013-10-10 20:52:00,
2013-10-10 16:03:00,73.0,45.0,-100.00,South,171,6.0,16.0,37,0.00,,,0.00,529.000000,,2013-10-10 21:03:00,
2013-10-10 16:44:00,73.0,44.0,-100.00,SSE,156,6.0,14.0,35,0.00,,,0.00,439.000000,,2013-10-10 21:44:00,
2013-10-10 16:54:00,73.0,44.0,-100.00,SSE,156,6.0,14.0,35,0.00,,,0.00,439.000000,,2013-10-10 21:54:00,
2013-10-10 17:04:00,73.0,44.0,-100.00,SSE,156,6.0,14.0,35,0.00,,,0.00,439.000000,,2013-10-10 22:04:00,
2013-10-10 17:43:00,71.0,43.0,-100.00,South,175,5.0,14.0,36,0.00,,,0.00,258.000000,,2013-10-10 22:43:00,
2013-10-10 17:53:00,71.0,43.0,-100.00,South,175,5.0,14.0,36,0.00,,,0.00,258.000000,,2013-10-10 22:53:00,
2013-10-10 18:03:00,71.0,43.0,-100.00,South,175,5.0,14.0,36,0.00,,,0.00,258.000000,,2013-10-10 23:03:00,
2013-10-10 18:43:00,69.0,46.0,-100.00,SSE,152,3.0,11.0,43,0.00,,,-99.99,84.000000,,2013-10-10 23:43:00,
2013-10-10 18:53:00,69.0,46.0,-100.00,SSE,152,3.0,11.0,43,0.00,,,-99.99,84.000000,,2013-10-10 23:53:00,
2013-10-10 19:02:00,69.0,46.0,-100.00,SSE,152,3.0,11.0,43,0.00,,,-99.99,84.000000,,2013-10-11 00:02:00,
2013-10-10 19:42:00,62.0,45.0,-100.00,SSE,149,3.0,6.0,54,0.00,,,0.00,3.000000,,2013-10-11 00:42:00,
2013-10-10 19:52:00,62.0,45.0,-100.00,SSE,149,3.0,6.0,54,0.00,,,0.00,3.000000,,2013-10-11 00:52:00,
2013-10-10 20:01:00,62.0,45.0,-100.00,SSE,149,3.0,6.0,54,0.00,,,0.00,3.000000,,2013-10-11 01:01:00,
2013-10-10 20:42:00,62.0,45.0,-100.00,SE,136,5.0,10.0,53,0.00,,,-99.99,0.000000,,2013-10-11 01:42:00,
2013-10-10 20:52:00,62.0,45.0,-100.00,SE,136,5.0,10.0,53,0.00,,,-99.99,0.000000,,2013-10-11 01:52:00,
2013-10-10 21:02:00,62.0,45.0,-100.00,SE,136,5.0,10.0,53,0.00,,,-99.99,0.000000,,2013-10-11 02:02:00,
2013-10-10 21:42:00,60.0,46.0,-100.00,SE,142,5.0,10.0,60,0.00,,,0.00,0.000000,,2013-10-11 02:42:00,
2013-10-10 21:52:00,60.0,46.0,-100.00,SE,142,5.0,10.0,60,0.00,,,0.00,0.000000,,2013-10-11 02:52:00,
2013-10-10 22:02:00,60.0,46.0,-100.00,SE,142,5.0,10.0,60,0.00,,,0.00,0.000000,,2013-10-11 03:02:00,
2013-10-10 22:45:00,60.0,47.0,-100.00,SE,145,5.0,10.0,61,0.00,,,0.00,0.000000,,2013-10-11 03:45:00,
2013-10-10 22:54:00,60.0,47.0,-100.00,SE,145,5.0,10.0,61,0.00,,,0.00,0.000000,,2013-10-11 03:54:00,
2013-10-10 23:04:00,60.0,47.0,-100.00,SE,145,5.0,10.0,61,0.00,,,0.00,0.000000,,2013-10-11 04:04:00,
2013-10-10 23:44:00,60.0,47.0,-100.00,SE,136,6.0,12.0,61,0.00,,,0.00,0.000000,,2013-10-11 04:44:00,
2013-10-10 23:53:00,60.0,47.0,-100.00,SE,136,6.0,12.0,61,0.00,,,0.00,0.000000,,2013-10-11 04:53:00,